Location: Julian California
(33.0790°N, 116.6010°W)
Time: 19:32:51
(UTC-07:00)

Cosmos 1939 Rocket - Pass Details

Date: 12 July 2018
Orbit: 534 x 584 km, 97.5° (Epoch: 23 September)

Event Time Altitude Azimuth Distance (km) Brightness Sun altitude
Exits shadow 21:02:38 - 187° (S) 2,724 6.1 -12.5°
Rises 21:02:41 0° 187° (S) 2,702 6.1 -12.5°
Reaches altitude 10° 21:04:58 10° 197° (SSW) 1,805 5.2 -12.9°
Maximum altitude 21:08:30 33° 262° (W) 930 4.4 -13.5°
Drops below altitude 10° 21:12:00 10° 327° (NNW) 1,796 6.6 -14.0°
Sets 21:14:17 0° 337° (NNW) 2,687 7.5 -14.4°
